• Em Portugal
  • Lista de países
  • Para 7 dias
  • Temperatura da água
  • Mapas de satélite
  • Mapa do tempo
  • Widgets de tempo
  • user-avatar
    Iniciar Sessão

    Previsão horária em Karaman

    Hoje, 20 Setembro, Quinta-feira

    Tempo Temperatura Precipitação Vento Pressão Humidade
    00:00 +19°C° 0 mm 2 m/s 672 mmHg 41%
    01:00 +19°C° 0 mm 2 m/s 672 mmHg 42%
    02:00 +18°C° 0 mm 2 m/s 672 mmHg 43%
    03:00 +18°C° 0 mm 2 m/s 672 mmHg 44%
    04:00 +17°C° 0 mm 2 m/s 671 mmHg 44%
    05:00 +18°C° 0 mm 1 m/s 671 mmHg 45%
    06:00 +18°C° 0 mm 2 m/s 672 mmHg 42%
    07:00 +19°C° 0 mm 2 m/s 672 mmHg 38%
    08:00 +21°C° 0 mm 2 m/s 673 mmHg 35%
    09:00 +23°C° 0 mm 2 m/s 673 mmHg 32%
    10:00 +24°C° 0 mm 2 m/s 673 mmHg 30%
    11:00 +26°C° 0 mm 2 m/s 674 mmHg 28%
    12:00 +27°C° 0 mm 2 m/s 673 mmHg 27%
    13:00 +27°C° 0 mm 2 m/s 673 mmHg 25%
    14:00 +28°C° 0 mm 2 m/s 673 mmHg 24%
    15:00 +28°C° 0 mm 2 m/s 673 mmHg 24%
    16:00 +28°C° 0 mm 3 m/s 673 mmHg 25%
    17:00 +27°C° 0 mm 3 m/s 672 mmHg 25%
    18:00 +26°C° 0 mm 2 m/s 672 mmHg 28%
    19:00 +24°C° 0 mm 2 m/s 672 mmHg 30%
    20:00 +23°C° 0 mm 2 m/s 672 mmHg 33%
    21:00 +21°C° 0 mm 2 m/s 672 mmHg 34%
    22:00 +21°C° 0 mm 1 m/s 672 mmHg 35%
    23:00 +21°C° 0 mm 1 m/s 671 mmHg 36%

    Amanhã, 21 Setembro, Sexta-feira

    Tempo Temperatura Precipitação Vento Pressão Humidade
    00:00 +20°C° 0 mm 1 m/s 671 mmHg 37%
    01:00 +20°C° 0 mm 1 m/s 671 mmHg 38%
    02:00 +19°C° 0 mm 1 m/s 671 mmHg 39%
    03:00 +19°C° 0 mm 1 m/s 671 mmHg 39%
    04:00 +18°C° 0 mm 1 m/s 671 mmHg 40%
    05:00 +18°C° 0 mm 1 m/s 671 mmHg 41%
    06:00 +19°C° 0 mm 1 m/s 671 mmHg 36%
    07:00 +21°C° 0 mm 1 m/s 672 mmHg 32%
    08:00 +23°C° 0 mm 1 m/s 673 mmHg 28%
    09:00 +24°C° 0 mm 2 m/s 673 mmHg 26%
    10:00 +25°C° 0 mm 2 m/s 673 mmHg 24%
    11:00 +26°C° 0 mm 2 m/s 674 mmHg 22%
    12:00 +27°C° 0 mm 2 m/s 674 mmHg 21%
    13:00 +28°C° 0 mm 3 m/s 673 mmHg 20%
    14:00 +28°C° 0 mm 3 m/s 673 mmHg 19%
    15:00 +28°C° 0 mm 3 m/s 673 mmHg 19%
    16:00 +28°C° 0 mm 4 m/s 673 mmHg 20%
    17:00 +27°C° 0 mm 4 m/s 673 mmHg 20%
    18:00 +26°C° 0 mm 3 m/s 673 mmHg 22%
    19:00 +24°C° 0 mm 3 m/s 673 mmHg 24%
    20:00 +23°C° 0 mm 2 m/s 673 mmHg 25%
    21:00 +21°C° 0 mm 2 m/s 673 mmHg 27%
    22:00 +20°C° 0 mm 2 m/s 672 mmHg 28%
    23:00 +20°C° 0 mm 1 m/s 672 mmHg 29%

    Depois de amanhã, 22 Setembro, Sábado

    Tempo Temperatura Precipitação Vento Pressão Humidade
    00:00 +20°C° 0 mm 1 m/s 672 mmHg 30%
    01:00 +19°C° 0 mm 1 m/s 672 mmHg 31%
    02:00 +19°C° 0 mm 1 m/s 672 mmHg 32%
    03:00 +18°C° 0 mm 1 m/s 672 mmHg 32%
    04:00 +18°C° 0 mm 1 m/s 672 mmHg 33%
    05:00 +18°C° 0 mm 1 m/s 672 mmHg 33%
    06:00 +19°C° 0 mm 1 m/s 672 mmHg 29%
    07:00 +20°C° 0 mm 2 m/s 673 mmHg 26%
    08:00 +23°C° 0 mm 2 m/s 674 mmHg 22%
    09:00 +24°C° 0 mm 2 m/s 674 mmHg 21%
    10:00 +26°C° 0 mm 2 m/s 674 mmHg 19%
    11:00 +27°C° 0 mm 2 m/s 674 mmHg 18%
    12:00 +27°C° 0 mm 3 m/s 674 mmHg 17%
    13:00 +28°C° 0 mm 3 m/s 674 mmHg 16%
    14:00 +29°C° 0 mm 3 m/s 674 mmHg 15%
    15:00 +28°C° 0 mm 3 m/s 674 mmHg 16%
    16:00 +28°C° 0 mm 3 m/s 673 mmHg 16%
    17:00 +28°C° 0 mm 3 m/s 673 mmHg 17%
    18:00 +26°C° 0 mm 3 m/s 673 mmHg 19%
    19:00 +24°C° 0 mm 2 m/s 673 mmHg 21%
    20:00 +21°C° 0 mm 2 m/s 673 mmHg 23%
    21:00 +21°C° 0 mm 2 m/s 673 mmHg 24%
    22:00 +21°C° 0 mm 1 m/s 673 mmHg 26%
    23:00 +20°C° 0 mm 1 m/s 672 mmHg 27%

    23 Setembro, Domingo

    Tempo Temperatura Precipitação Vento Pressão Humidade
    00:00 +20°C° 0 mm 1 m/s 672 mmHg 28%
    01:00 +20°C° 0 mm 1 m/s 672 mmHg 28%
    02:00 +19°C° 0 mm 1 m/s 672 mmHg 29%
    03:00 +19°C° 0 mm 1 m/s 672 mmHg 30%
    04:00 +18°C° 0 mm 1 m/s 672 mmHg 31%
    05:00 +17°C° 0 mm 2 m/s 672 mmHg 31%
    06:00 +19°C° 0 mm 2 m/s 673 mmHg 29%
    07:00 +21°C° 0 mm 2 m/s 673 mmHg 26%
    08:00 +23°C° 0 mm 2 m/s 674 mmHg 23%
    09:00 +25°C° 0 mm 3 m/s 674 mmHg 22%
    10:00 +26°C° 0 mm 3 m/s 675 mmHg 21%
    11:00 +27°C° 0 mm 3 m/s 675 mmHg 19%
    12:00 +28°C° 0 mm 3 m/s 675 mmHg 18%
    13:00 +28°C° 0 mm 4 m/s 675 mmHg 17%
    14:00 +29°C° 0 mm 4 m/s 674 mmHg 16%
    15:00 +29°C° 0 mm 4 m/s 674 mmHg 16%
    16:00 +28°C° 0 mm 4 m/s 674 mmHg 17%
    17:00 +28°C° 0 mm 4 m/s 674 mmHg 17%
    18:00 +26°C° 0 mm 4 m/s 674 mmHg 20%
    19:00 +24°C° 0 mm 3 m/s 674 mmHg 22%
    20:00 +23°C° 0 mm 2 m/s 674 mmHg 24%
    21:00 +21°C° 0 mm 2 m/s 674 mmHg 26%
    22:00 +20°C° 0 mm 2 m/s 673 mmHg 27%
    23:00 +20°C° 0 mm 2 m/s 673 mmHg 29%

    24 Setembro, Segunda-feira

    Tempo Temperatura Precipitação Vento Pressão Humidade
    00:00 +19°C° 0 mm 2 m/s 673 mmHg 30%
    01:00 +19°C° 0 mm 2 m/s 673 mmHg 31%
    02:00 +18°C° 0 mm 2 m/s 673 mmHg 32%
    03:00 +18°C° 0 mm 2 m/s 672 mmHg 34%
    04:00 +17°C° 0 mm 2 m/s 672 mmHg 35%
    05:00 +17°C° 0 mm 2 m/s 672 mmHg 36%
    06:00 +19°C° 0 mm 2 m/s 673 mmHg 33%
    07:00 +21°C° 0 mm 1 m/s 673 mmHg 30%
    08:00 +23°C° 0 mm 1 m/s 674 mmHg 27%
    09:00 +25°C° 0 mm 1 m/s 674 mmHg 25%
    10:00 +26°C° 0 mm 1 m/s 674 mmHg 22%
    11:00 +27°C° 0 mm 1 m/s 674 mmHg 20%
    12:00 +28°C° 0 mm 1 m/s 674 mmHg 19%
    13:00 +29°C° 0 mm 1 m/s 673 mmHg 17%
    14:00 +30°C° 0 mm 1 m/s 673 mmHg 15%
    15:00 +29°C° 0 mm 1 m/s 673 mmHg 16%
    16:00 +29°C° 0 mm 1 m/s 673 mmHg 16%
    17:00 +29°C° 0 mm 1 m/s 673 mmHg 17%
    18:00 +27°C° 0 mm 1 m/s 672 mmHg 20%
    19:00 +25°C° 0 mm 1 m/s 672 mmHg 22%
    20:00 +23°C° 0 mm 1 m/s 672 mmHg 25%
    21:00 +22°C° 0 mm 1 m/s 671 mmHg 26%
    22:00 +21°C° 0 mm 1 m/s 671 mmHg 27%
    23:00 +19°C° 0 mm 0 m/s 670 mmHg 28%

    25 Setembro, Terça-feira

    Tempo Temperatura Precipitação Vento Pressão Humidade
    00:00 +18°C° 0 mm 0 m/s 670 mmHg 29%
    01:00 +18°C° 0 mm 0 m/s 670 mmHg 30%
    02:00 +17°C° 0 mm 0 m/s 670 mmHg 31%
    03:00 +17°C° 0 mm 0 m/s 670 mmHg 31%
    04:00 +16°C° 0 mm 0 m/s 670 mmHg 31%
    05:00 +16°C° 0 mm 0 m/s 669 mmHg 31%
    06:00 +18°C° 0 mm 0 m/s 670 mmHg 27%
    07:00 +21°C° 0 mm 0 m/s 671 mmHg 23%
    08:00 +23°C° 0 mm 0 m/s 672 mmHg 19%
    09:00 +26°C° 0 mm 1 m/s 672 mmHg 18%
    10:00 +28°C° 0 mm 1 m/s 672 mmHg 16%
    11:00 +29°C° 0 mm 1 m/s 672 mmHg 15%
    12:00 +30°C° 0 mm 1 m/s 672 mmHg 15%
    13:00 +30°C° 0 mm 2 m/s 671 mmHg 15%
    14:00 +31°C° 0 mm 2 m/s 671 mmHg 14%
    15:00 +30°C° 0 mm 2 m/s 671 mmHg 16%
    16:00 +29°C° 0 mm 2 m/s 671 mmHg 18%
    17:00 +29°C° 0 mm 3 m/s 670 mmHg 21%
    18:00 +27°C° 0 mm 2 m/s 670 mmHg 25%
    19:00 +25°C° 0 mm 2 m/s 670 mmHg 30%
    20:00 +23°C° 0 mm 2 m/s 669 mmHg 35%
    21:00 +23°C° 0 mm 2 m/s 669 mmHg 38%
    22:00 +21°C° 0 mm 2 m/s 669 mmHg 40%
    23:00 +20°C° 0 mm 2 m/s 669 mmHg 42%
    Mostrar mais